[Iaude] MPEC T69: 2016 TD11 [a=1.81,e=0.46,i=4.7,H=26.3]

mpec at si.edu mpec at si.edu
Fri Oct 7 12:41:45 EDT 2016


M.P.E.C. 2016-T69                                Issued 2016 Oct. 7, 16:37 UT
 
     The Minor Planet Electronic Circulars contain information on unusual
         minor planets and routine data on comets.  They are published
    on behalf of Division F of the International Astronomical Union by the
          Minor Planet Center, Smithsonian Astrophysical Observatory,
                          Cambridge, MA 02138, U.S.A.

             Prepared using the Tamkin Foundation Computer Network

                              MPC at CFA.HARVARD.EDU
            URL http://www.minorplanetcenter.net/    ISSN 1523-6714


                                   2016 TD11
 
Observations:
     K16T11D* C2016 10 06.22858 22 54 48.83 -02 50 32.3          19.5 VqET069G96
     K16T11D  C2016 10 06.22899 22 54 48.85 -02 50 25.0          20.0 VqET069G96
     K16T11D  C2016 10 06.22940 22 54 48.88 -02 50 18.2          19.3 VqET069G96
     K16T11D  C2016 10 06.22981 22 54 48.93 -02 50 07.9          20.3 VqET069G96
     K16T11D  C2016 10 06.25050 22 54 50.94 -02 44 23.0          18.8 VqET069G96
     K16T11D  C2016 10 06.25176 22 54 51.03 -02 44 01.8          20.1 VqET069G96
     K16T11D  C2016 10 06.25301 22 54 51.18 -02 43 40.6          19.7 VqET069G96
     K16T11D  C2016 10 06.25767 22 54 51.66 -02 42 20.5                qET069G96
     K16T11D  C2016 10 06.26196 22 54 52.08 -02 41 09.1          19.1 VqET069G96
     K16T11D  C2016 10 06.26625 22 54 52.52 -02 39 55.3          19.8 VqET069G96
     K16T11D  C2016 10 06.26691222 54 51.59 -02 39 51.6          20.4 VtET069H01
     K16T11D  C2016 10 06.27053 22 54 52.94 -02 38 42.0                qET069G96
     K16T11D  C2016 10 06.27366522 54 52.31 -02 37 57.0          19.9 VtET069H01
     K16T11D  C2016 10 06.28333922 54 53.35 -02 35 12.6          20.3 VtET069H01
     K16T11D  C2016 10 06.29188022 54 54.33 -02 32 47.3          20.2 VtET069H01
     K16T11D KC2016 10 06.92520 22 57 26.67 +00 42 28.7          19.6 VSET069595
     K16T11D KC2016 10 06.94039 22 57 29.12 +00 47 37.5                SET069595
     K16T11D KC2016 10 06.94804 22 57 30.38 +00 50 12.5                SET069595
     K16T11D KC2016 10 07.07923622 58 21.10 +01 36 04.1          19.4 VuET069H21
     K16T11D KC2016 10 07.08265622 58 21.67 +01 37 16.6          19.0 VuET069H21
     K16T11D KC2016 10 07.08590122 58 22.21 +01 38 25.2          19.5 VuET069H21
     K16T11D KC2016 10 07.08853922 58 22.65 +01 39 21.0          19.7 VuET069H21
     K16T11D KC2016 10 07.18336 22 58 48.99 +02 13 25.9          18.8 RtET069G58
     K16T11D  C2016 10 07.18841 22 58 46.43 +02 15 45.6          19.0 VqET069G96
     K16T11D  C2016 10 07.18883 22 58 46.49 +02 15 54.1          19.3 VqET069G96
     K16T11D  C2016 10 07.18925 22 58 46.54 +02 16 04.0          19.3 VqET069G96
     K16T11D  C2016 10 07.18971 22 58 46.62 +02 16 13.5          18.9 VqET069G96
     K16T11D  C2016 10 07.19018 22 58 46.69 +02 16 24.2          20.1 VqET069G96
     K16T11D  C2016 10 07.19126 22 58 46.84 +02 16 46.7          19.2 VqET069G96
     K16T11D  C2016 10 07.19231 22 58 47.00 +02 17 09.8          19.5 VqET069G96
     K16T11D  C2016 10 07.19339 22 58 47.19 +02 17 32.9          19.1 VqET069G96
     K16T11D KC2016 10 07.19482 22 58 50.92 +02 17 35.7          19.1 RtET069G58
     K16T11D KC2016 10 07.19991 22 58 51.75 +02 19 26.6          19.3 RtET069G58
     K16T11D  C2016 10 07.20184 22 58 48.41 +02 20 38.3          20.3 VqET069I52
     K16T11D  C2016 10 07.20226 22 58 48.50 +02 20 47.7          19.2 VqET069I52
     K16T11D  C2016 10 07.20268 22 58 48.54 +02 20 56.9          19.6 VqET069I52
     K16T11D  C2016 10 07.20311 22 58 48.63 +02 21 06.2          19.8 VqET069I52
     K16T11D KC2016 10 07.20500 22 58 52.62 +02 21 18.1          18.9 RtET069G58
 
Observer details:
595 Farra d'Isonzo.  Observers G. Ierman, E. Pettarin, F. Piani.  Measurer
    E. Pettarin.  0.61-m f/4.0 reflector + CCD.
G58 Chabot Space and Science Center, Oakland.  Observers G. McKeegan,
    J. Goheen, R. English.  0.9-m f/4.5 Cassegrain + CCD.
G96 Mt. Lemmon Survey.  Observers R. G. Matheny, G. J. Leonard.  Measurers
    E. J. Christensen, D. C. Fuls, A. R. Gibbs, A. D. Grauer, J. A. Johnson,
    R. A. Kowalski, S. M. Larson, G. J. Leonard, R. G. Matheny, R. L. Seaman,
    F. C. Shelly.  1.5-m reflector + 10K CCD.
H01 Magdalena Ridge Observatory, Socorro.  Observers W. H. Ryan, E. V. Ryan.
    Measurer W. H. Ryan.  2.4-m f/8.9 reflector + CCD.
H21 Astronomical Research Observatory, Westfield.  Observer R. Holmes.
    Measurers S. Foglia, L. Buzzi, T. Linder, R. Holmes.  0.61-m f/4.5
    astrograph + CCD.
I52 Steward Observatory, Mt. Lemmon Station.  Observer J. A. Johnson.
    Measurers E. J. Christensen, D. C. Fuls, A. R. Gibbs, A. D. Grauer,
    J. A. Johnson, R. A. Kowalski, S. M. Larson, G. J. Leonard, R. G. Matheny,
    R. L. Seaman, F. C. Shelly.  1.0-m reflector + CCD.
 
Orbital elements:
2016 TD11                                                Earth MOID = 0.0141 AU
Epoch 2016 July 31.0 TT = JDT 2457600.5                 MPC
M 323.01425              (2000.0)            P               Q
n   0.40389755     Peri.   30.12834     +0.75124947     -0.65982574
a   1.8125441      Node    11.20148     +0.58798675     +0.65809208
e   0.4573707      Incl.    4.70795     +0.29982630     +0.36269106
P   2.44           H   26.3           G   0.15           U   5
Residuals in seconds of arc
161006 G96  0.3+  1.1-    161006 H01  0.3-  0.2-    161007 G96  0.1+  0.1+
161006 G96  0.1+  0.7-    161006 H01  0.0   0.6-    161007 G96  0.1+  0.6+
161006 G96  0.1-  0.7-    161006 595  0.1-  0.4-    161007 G96  0.1-  0.5-
161006 G96  0.1+  2.7+    161006 595  0.2+  0.5+    161007 G96  0.1-  0.3-
161006 G96  0.1+  0.5-    161006 595  0.3+  0.1-    161007 G96  0.3+  0.8-
161006 G96  0.4-  0.6-    161007 H21  0.0   0.1+    161007 G58  0.4+  0.3+
161006 G96  0.0   0.5-    161007 H21  0.0   0.2+    161007 G58  0.2+  0.2-
161006 G96  0.3+  0.8+    161007 H21  0.0   0.1+    161007 I52  0.5-  0.2-
161006 G96  0.2+  0.4-    161007 H21  0.1+  0.0     161007 I52  0.1-  0.0
161006 G96  0.3+  0.7+    161007 G58  0.3+  0.6+    161007 I52  0.5-  0.0
161006 H01  0.0   0.1+    161007 G96  0.2+  0.6+    161007 I52  0.1-  0.1-
161006 G96  0.0   1.4+    161007 G96  0.2+  0.1-    161007 G58  0.7+  0.2-
161006 H01  0.0   0.0     161007 G96  0.0   0.7+

Ephemeris:
2016 TD11                a,e,i = 1.81, 0.46, 5                   q = 0.9835
Date    TT    R. A. (2000) Decl.     Delta      r     Elong.  Phase     V
2016 09 07    22 44 45.3 -25 57 19   0.1569  1.1561   159.6    17.7    23.5
...
2016 09 22    22 41 35.4 -23 52 31   0.08608 1.0792   150.2    27.5    22.4
...
2016 09 30    22 43 52.8 -18 09 36   0.05181 1.0454   147.3    31.2    21.3
...
2016 10 06    22 54 03.1 -03 49 39   0.02813 1.0242   150.3    29.0    19.9
2016 10 07    22 57 51.0 +01 11 53   0.02460 1.0211   151.4    28.0    19.5
2016 10 08    23 03 00.3 +07 49 59   0.02134 1.0181   152.2    27.3    19.2
...
2016 10 14    04 28 33.2 +78 31 34   0.01759 1.0023   105.7    73.3    20.1
...
2016 10 22    09 56 10.7 +52 01 57   0.04559 0.9884    80.1    97.3    23.1
...
2016 11 06    10 17 56.6 +41 06 09   0.1042  0.9858    84.0    89.9    24.5

A. U. Tomatic                (C) Copyright 2016 MPC           M.P.E.C. 2016-T69




More information about the Iaude mailing list